Regional Weather Roundup
Issued by NWS Charleston, WV

Home | Current Version | Previous Version | Text Only | Print | Product List | Glossary Off
Versions: 1 2 3 4 5 6 7 8 9 10 11 12 13 14 15 16 17 18 19 20 21 22 23 24 25 26 27 28 29 30 31 32 33 34 35 36 37 38 39 40 41 42 43 44 45 46 47 48 49 50

000
ASUS41 KRLX 050810
RWRRLX
West Virginia Regional Weather Roundup
National Weather Service Charleston WV
400 AM EDT SUN JUL 05 2015

Note: "fair" indicates few or no clouds below 12,000 feet with no
significant weather and/or obstructions to visibility.

WVZ003-050900-
Northern Panhandle of West Virginia

CITY           SKY/WX    TMP DP  RH WIND       PRES   REMARKS
WHEELING       MOCLDY    61  54  77 CALM      30.10S
$$

WVZ009-050900-
Northwest West Virginia

CITY           SKY/WX    TMP DP  RH WIND       PRES   REMARKS
PARKERSBURG    MOCLDY    61  59  93 CALM      30.10R FOG
$$

WVZ006-050900-
Western West Virginia

CITY           SKY/WX    TMP DP  RH WIND       PRES   REMARKS
HUNTINGTON     FOG       64  64 100 NE3       30.05F VSB 1/4
$$

WVZ015-050900-
West Central West Virginia

CITY           SKY/WX    TMP DP  RH WIND       PRES   REMARKS
CHARLESTON     FOG       66  65  96 NE3       30.07S VSB 1/2
$$

WVZ022-031-050900-
North Central West Virginia

CITY           SKY/WX    TMP DP  RH WIND       PRES   REMARKS
CLARKSBURG     MOCLDY    60  59  96 CALM      30.10S FOG
MORGANTOWN     MOCLDY    63  58  83 CALM      30.11R HAZE
$$

WVZ025-035-042-045-050900-
Southern West Virginia

CITY           SKY/WX    TMP DP  RH WIND       PRES   REMARKS
BECKLEY        MOCLDY    62  60  93 SE3       30.13F FOG
LOGAN          FOG       66  66 100 CALM      30.05S VSB<1/4
BLUEFIELD      CLOUDY    66  62  87 CALM      30.15F FOG
LEWISBURG      FOG       61  59  92 CALM      30.13F VSB 1/4
$$

WVZ047-050900-
Northern Mountains of West Virginia

CITY           SKY/WX    TMP DP  RH WIND       PRES   REMARKS
ELKINS         FOG       60  58  92 SE3       30.15S VSB 1
$$

WVZ052-050900-
Eastern Panhandle of West Virginia

CITY           SKY/WX    TMP DP  RH WIND       PRES   REMARKS
MARTINSBURG    PTCLDY    65  63  93 CALM      30.09S FOG
PETERSBURG     MOCLDY    59  57  92 CALM      30.11S FOG
$$



USA.gov is the U.S. government's official web portal to all federal, state and local government web resources and services.